Regional Weather Roundup
Issued by NWS Goodland, KS

Home | Current Version | Previous Version | Text Only | Print | Product List | Glossary Off
Versions: 1 2 3 4 5 6 7 8 9 10 11 12 13 14 15 16 17 18 19 20 21 22 23 24 25 26 27 28 29 30 31 32 33 34 35 36 37 38 39 40 41 42 43 44 45 46 47 48 49 50

000
ASUS43 KGLD 061859
RWRGLD

GOODLAND FORECAST AREA HOURLY WEATHER ROUNDUP
NATIONAL WEATHER SERVICE GOODLAND KS
100 PM MDT WED MAY 06 2015

...OFFICIAL OBSERVATIONS...

CITY           SKY/WX    TMP DP  RH WIND       PRES   REMARKS
GOODLAND KS    CLOUDY    61  53  75 S13       29.66S
HILL CITY KS   CLOUDY    71  58  63 S17G26    29.65F
IMPERIAL NEB   CLOUDY    61  53  75 SE16      29.63F
MCCOOK NEB     CLOUDY    66  53  63 S16       29.65F
AKRON CO       RAIN      55  54  96 W18       29.64F FOG
BURLINGTON CO  CLOUDY    61  50  67 W10       29.68F
LIMON CO       PTSUNNY   61  47  59 NW15      29.70F
$$

...UNOFFICIAL OBSERVATIONS...

CITY           SKY/WX    TMP DP  RH WIND       PRES   REMARKS
COLBY KS       CLOUDY    59  55  88 S10G16    29.68F
GOVE KS          N/A     66  32  28 MISG        N/A
LENORA KS        N/A     67  32  27 MISG        N/A
NORTON KS      CLOUDY    68  54  60 SE18      29.66F
SHARON SPRINGS   N/A     64  57  79 MISG        N/A
KIT CARSON CO    N/A     64  54  69 MISG        N/A
YUMA CO          N/A     59  55  85 SW20        N/A
$$



USA.gov is the U.S. government's official web portal to all federal, state and local government web resources and services.